Location: Newark
(37.8444°N, 127.0614°E)
Time: 00:32:31
(UTC+00:00)

XW-2F - Pass Details

Date: 22 January 2020
Orbit: 502 x 523 km, 97.5° (Epoch: 24 February)

Event Time Altitude Azimuth Distance (km) Brightness Sun altitude
Rises 21:06:59 0° 21° (NNE) 2,609 ? -18.9°
Reaches altitude 10° 21:09:13 10° 31° (NNE) 1,718 ? -18.5°
Maximum altitude 21:12:36 34° 98° (E) 840 ? -17.8°
Drops below altitude 10° 21:15:58 10° 165° (SSE) 1,702 ? -17.1°
Sets 21:18:10 0° 174° (S) 2,581 ? -16.7°
